When you browse on this site, cookies collect data to enhance your experience and personalize the content and advertising you see.
Visit our Privacy Policy to learn more. By continuing to use the site, you agree to this use of cookies and data.
  • In United Kingdom
  • List of Countries
  • For 7 days
  • Water Temperature
  • Satellite Maps
  • Weather Map
  • Weather Widgets
  • user-avatar
    Login

    Hourly Weather Petrushiv

    Today, 19 June, Wednesday

    Time Temperature Precipitation Wind Pressure Humidity
    00:00 +20°C° 0 mm 2 mps 714 mmHg 80%
    01:00 +20°C° 0 mm 2 mps 714 mmHg 78%
    02:00 +20°C° 0 mm 2 mps 714 mmHg 78%
    03:00 +19°C° 0 mm 2 mps 714 mmHg 79%
    04:00 +19°C° 0 mm 2 mps 714 mmHg 80%
    05:00 +19°C° 0 mm 2 mps 714 mmHg 80%
    06:00 +19°C° 0 mm 2 mps 714 mmHg 81%
    07:00 +21°C° 0 mm 2 mps 714 mmHg 82%
    08:00 +23°C° 0 mm 2 mps 714 mmHg 77%
    09:00 +24°C° 0 mm 2 mps 714 mmHg 75%
    10:00 +25°C° 0 mm 2 mps 715 mmHg 74%
    11:00 +26°C° 0 mm 2 mps 714 mmHg 71%
    12:00 +27°C° 0 mm 2 mps 714 mmHg 68%
    13:00 +27°C° 0 mm 2 mps 713 mmHg 68%
    14:00 +28°C° 0 mm 1 mps 713 mmHg 67%
    15:00 +28°C° 0 mm 2 mps 712 mmHg 66%
    16:00 +29°C° 0 mm 3 mps 712 mmHg 63%
    17:00 +28°C° 0 mm 3 mps 713 mmHg 68%
    18:00 +27°C° 0 mm 2 mps 712 mmHg 69%
    19:00 +23°C° 0.4 mm 7 mps 713 mmHg 82%
    20:00 +22°C° 0 mm 3 mps 712 mmHg 74%
    21:00 +21°C° 0 mm 2 mps 712 mmHg 78%
    22:00 +20°C° 0 mm 2 mps 712 mmHg 83%
    23:00 +21°C° 0 mm 3 mps 711 mmHg 83%

    Tomorrow, 20 June, Thursday

    Time Temperature Precipitation Wind Pressure Humidity
    00:00 +21°C° 0 mm 2 mps 712 mmHg 79%
    01:00 +21°C° 0 mm 2 mps 712 mmHg 77%
    02:00 +20°C° 0 mm 2 mps 712 mmHg 77%
    03:00 +20°C° 0 mm 3 mps 712 mmHg 80%
    04:00 +19°C° 0 mm 3 mps 712 mmHg 83%
    05:00 +19°C° 0 mm 3 mps 712 mmHg 85%
    06:00 +20°C° 0 mm 3 mps 712 mmHg 85%
    07:00 +21°C° 0 mm 3 mps 713 mmHg 83%
    08:00 +21°C° 0 mm 2 mps 713 mmHg 83%
    09:00 +24°C° 0 mm 2 mps 713 mmHg 79%
    10:00 +25°C° 0 mm 1 mps 713 mmHg 75%
    11:00 +26°C° 0 mm 1 mps 713 mmHg 71%
    12:00 +27°C° 0 mm 1 mps 713 mmHg 68%
    13:00 +28°C° 0 mm 1 mps 712 mmHg 67%
    14:00 +28°C° 0 mm 2 mps 712 mmHg 64%
    15:00 +29°C° 0 mm 3 mps 712 mmHg 65%
    16:00 +28°C° 0 mm 3 mps 712 mmHg 66%
    17:00 +28°C° 0 mm 2 mps 711 mmHg 69%
    18:00 +27°C° 0.4 mm 2 mps 712 mmHg 74%
    19:00 +26°C° 0 mm 2 mps 712 mmHg 75%
    20:00 +25°C° 0 mm 1 mps 712 mmHg 82%
    21:00 +24°C° 0 mm 3 mps 712 mmHg 84%
    22:00 +22°C° 0 mm 3 mps 712 mmHg 82%
    23:00 +21°C° 0 mm 2 mps 712 mmHg 83%

    Day after tomorrow, 21 June, Friday

    Time Temperature Precipitation Wind Pressure Humidity
    00:00 +22°C° 0 mm 1 mps 712 mmHg 86%
    01:00 +22°C° 0 mm 1 mps 712 mmHg 88%
    02:00 +22°C° 0 mm 1 mps 712 mmHg 90%
    03:00 +20°C° 0 mm 2 mps 712 mmHg 92%
    04:00 +20°C° 0 mm 2 mps 712 mmHg 93%
    05:00 +20°C° 0 mm 2 mps 713 mmHg 94%
    06:00 +20°C° 0 mm 2 mps 713 mmHg 94%
    07:00 +21°C° 0 mm 2 mps 713 mmHg 93%
    08:00 +23°C° 0 mm 2 mps 713 mmHg 92%
    09:00 +24°C° 0 mm 2 mps 713 mmHg 89%
    10:00 +25°C° 0 mm 1 mps 714 mmHg 86%
    11:00 +26°C° 0 mm 1 mps 713 mmHg 82%
    12:00 +27°C° 0 mm 2 mps 713 mmHg 80%
    13:00 +27°C° 0 mm 2 mps 713 mmHg 77%
    14:00 +27°C° 0.8 mm 3 mps 713 mmHg 83%
    15:00 +27°C° 0.4 mm 2 mps 713 mmHg 82%
    16:00 +28°C° 0 mm 3 mps 712 mmHg 77%
    17:00 +27°C° 0 mm 4 mps 712 mmHg 78%
    18:00 +25°C° 1.6 mm 4 mps 712 mmHg 87%
    19:00 +26°C° 0.6 mm 1 mps 712 mmHg 87%
    20:00 +25°C° 0 mm 2 mps 712 mmHg 93%
    21:00 +24°C° 0 mm 1 mps 712 mmHg 94%
    22:00 +23°C° 0 mm 2 mps 712 mmHg 93%
    23:00 +23°C° 0 mm 2 mps 713 mmHg 95%

    22 June, Saturday

    Time Temperature Precipitation Wind Pressure Humidity
    00:00 +21°C° 0 mm 2 mps 713 mmHg 95%
    01:00 +21°C° 0 mm 2 mps 713 mmHg 96%
    02:00 +21°C° 0 mm 2 mps 713 mmHg 95%
    03:00 +21°C° 0 mm 2 mps 713 mmHg 95%
    04:00 +20°C° 0 mm 2 mps 713 mmHg 97%
    05:00 +20°C° 0 mm 2 mps 713 mmHg 97%
    06:00 +20°C° 0 mm 3 mps 713 mmHg 97%
    07:00 +21°C° 0 mm 3 mps 713 mmHg 95%
    08:00 +22°C° 0 mm 3 mps 713 mmHg 93%
    09:00 +24°C° 0 mm 3 mps 713 mmHg 90%
    10:00 +25°C° 0 mm 3 mps 714 mmHg 86%
    11:00 +26°C° 0 mm 3 mps 713 mmHg 82%
    12:00 +27°C° 0 mm 3 mps 713 mmHg 79%
    13:00 +25°C° 1.1 mm 3 mps 713 mmHg 89%
    14:00 +25°C° 0.5 mm 2 mps 712 mmHg 90%

    23 June, Sunday

    Time Temperature Precipitation Wind Pressure Humidity

    24 June, Monday

    Time Temperature Precipitation Wind Pressure Humidity
    Show more